Location: ???????
(55.3824°N, 37.8826°E)
Time: 06:05:53
(UTC+00:00)

Daily predictions for brighter satellites

Satellite Brightness Start Highest point End
(mag) Time Altitude Azimuth Time Altitude Azimuth Time Altitude Azimuth
Cosmos 1605 Rocket 4.0 14:07:12 10° S 14:13:25 80° E 14:19:34 10° NNE
Cosmos 2263 Rocket 2.2 14:09:44 10° SSW 14:15:18 88° WNW 14:20:56 10° NE
MOS 1 Rocket 4.0 14:13:52 10° ESE 14:17:29 28° ENE 14:21:11 10° N
Cosmos 1025 Rocket 3.6 14:14:49 10° N 14:18:50 34° ENE 14:22:48 10° SE
Cosmos 1607 4.4 14:15:28 10° SSW 14:21:13 43° ESE 14:27:00 10° NE
SAR-Lupe-5 4.4 14:19:58 10° NNE 14:22:40 54° ESE 14:25:16 10° S
Cosmos 1844 Rocket 3.5 14:18:15 10° SSE 14:23:03 31° ESE 14:27:54 10° NE
SPOT 1/Viking Rocket 4.3 14:19:29 10° ESE 14:23:59 32° ENE 14:28:32 10° N
Cosmos 909 Rocket 4.1 14:17:43 10° NW 14:24:18 88° SW 14:30:38 10° SE
YAOGAN 1 3.8 14:22:06 10° ESE 14:25:20 21° ENE 14:28:34 10° N
Cosmos 2297 Rocket 3.5 14:20:46 10° WSW 14:25:53 34° NW 14:31:02 10° NNE
NOSS 3-4 (A) 3.7 14:20:21 10° NW 14:26:44 77° NE 14:34:19 10° ESE
NOSS 3-4 (C) 3.7 14:20:25 10° NW 14:26:48 77° NE 14:34:23 10° ESE
Cosmos 1833 Rocket 3.4 14:21:57 10° NNW 14:27:05 34° NE 14:32:12 10° ESE
ARIANE 5 R/B 2.4 14:22:26 10° SSE 14:27:22 66° ENE 14:32:21 10° NNW
Cosmos 1869 Rocket 3.9 14:25:28 10° SSW 14:29:46 70° WNW 14:34:05 10° N
Cosmos 1378 Rocket 3.4 14:26:20 10° N 14:30:39 73° ENE 14:34:58 10° SSE
SAR-Lupe-1 4.0 14:29:01 10° SSE 14:32:33 67° ENE 14:36:08 10° NNW
Aureole 3 3.9 14:29:11 10° NNW 14:33:18 58° W 14:36:42 10° S
Cosmos 1459 Rocket 4.3 14:29:21 10° SSE 14:35:15 46° E 14:41:15 10° NNE
NOSS 3-3 (A) 4.2 14:31:18 10° SSW 14:36:21 45° SE 14:42:22 10° NE
NOSS 8 (H) 4.4 14:32:49 10° SW 14:36:33 77° NW 14:39:28 11° NE
Cosmos 1603 3.8 14:30:51 10° NW 14:36:37 84° WSW 14:42:17 10° SSE
ARIANE 6 FM1 Upper Stage 4.3 14:35:07 10° SSE 14:37:49 18° ESE 14:40:04 12° E
UNK 3.9 14:33:17 10° NNE 14:37:51 55° ESE 14:42:22 10° S
Cosmos 1484 Rocket 4.2 14:34:56 10° SSW 14:38:11 38° W 14:41:31 10° NNW
SL-16 R/B 2.6 14:32:30 10° NNE 14:38:50 89° ESE 14:45:07 10° SSW
Geosat 4.0 14:36:10 10° SE 14:41:06 62° NE 14:46:03 10° NNW
IGS 5A 4.0 14:39:32 10° S 14:43:27 60° W 14:47:26 10° NNW
SJ-12 3.6 14:39:41 10° SSE 14:43:30 75° ENE 14:47:19 10° NNW
Cosmos 1725 Rocket 4.5 14:38:44 10° SSE 14:44:25 38° E 14:50:09 10° NNE
Meteor 1-28 Rocket 3.0 14:41:52 10° NNE 14:45:15 77° WNW 14:48:37 10° SSW
Meteor 2-17 Rocket 4.4 14:40:42 10° N 14:46:51 72° ENE 14:53:00 10° SSE
CZ-2D R/B 3.9 14:43:41 10° SE 14:47:27 38° ENE 14:51:20 10° N
ATLAS 5 CENTAUR R/B 2.1 14:45:04 10° NW 14:48:36 37° NNE 14:52:00 14° E
ATLAS 2AS CENTAUR R/B 3.3 14:44:09 10° W 14:50:51 48° NNW 14:56:57 12° ENE
Cosmos 1802 Rocket 4.3 14:44:55 10° SSE 14:50:59 47° E 14:57:04 10° NNE
IRS-1C 4.2 14:46:04 10° SSE 14:51:23 85° WSW 14:56:46 10° NNW
COSMO-SKYMED 1 3.9 14:49:19 11° NE 14:51:49 18° E 14:54:40 10° SE
SAR-Lupe-4 4.0 14:48:41 10° S 14:52:15 67° WSW 14:55:51 10° NNW
SMAP 3.4 14:48:04 10° S 14:52:43 73° WSW 14:57:24 10° NNW
Iridium 4 Rocket 3.5 14:49:21 10° S 14:54:44 65° E 14:59:43 10° N
Cosmos 1302 Rocket 4.3 14:50:14 10° NNW 14:55:26 71° WSW 15:00:37 10° SSE
NOSS 3-3 (C) 4.0 14:52:47 10° SSW 14:57:59 52° SE 15:03:29 13° NE
Cosmos 1908 Rocket 4.1 14:55:58 10° SSE 15:00:01 37° E 15:04:08 10° NNE
Cosmos 2221 Rocket 3.5 14:55:39 10° N 15:00:11 71° ENE 15:04:41 10° SSE
Cosmos 1975 Rocket 3.9 14:56:52 10° N 15:00:37 28° ENE 15:04:21 10° SE
Tsikada Rocket 4.2 14:55:44 10° N 15:02:02 53° ENE 15:08:17 10° SSE
Cosmos 2173 Rocket 3.9 14:57:45 10° S 15:03:58 72° E 15:10:08 10° NNE
SWARM C 4.4 15:00:48 10° N 15:04:09 73° E 15:07:28 10° S
SWARM A 4.2 15:00:54 10° N 15:04:14 63° E 15:07:31 10° SSE
Cosmos 724 4.4 14:58:21 10° SW 15:04:36 79° SE 15:10:22 12° NE
Cosmos 1606 2.0 15:02:22 10° S 15:05:01 47° E 15:07:11 14° NNE
USA 281 3.5 14:59:37 10° ESE 15:05:48 46° NE 15:12:02 10° NNW
Cosmos 1300 Rocket 4.5 15:02:09 10° SE 15:05:50 27° E 15:09:32 10° NNE
Spot 4 Rocket 4.1 15:02:09 10° SE 15:07:07 56° ENE 15:12:07 10° N
Landsat 7 4.0 15:03:00 10° S 15:07:39 74° WSW 15:12:20 10° NNW
SL-4 R/B 2.5 15:04:32 10° W 15:07:47 42° S 15:10:23 16° ESE
DNEPR-1 R/B 3.6 15:04:14 10° NW 15:08:28 61° NE 15:12:18 15° ESE
Cosmos 2227 4.2 15:03:24 10° SSW 15:09:07 69° ESE 15:14:51 10° NE
Cosmos 2082 Rocket 3.4 15:06:07 10° NNW 15:10:43 25° NNE 15:13:14 18° ENE
CZ-4C R/B 2.6 15:06:59 10° S 15:10:56 33° ESE 15:13:45 20° ENE
Cosmos 2227 Rocket 3.6 15:07:59 10° W 15:13:04 33° NW 15:18:11 10° NNE
SAR-Lupe-3 3.7 15:10:46 10° NNE 15:13:31 84° ESE 15:16:13 10° SSW
Cosmos 1733 Rocket 3.5 15:09:30 10° SSW 15:13:47 63° WNW 15:18:06 10° N
Cosmos 1992 Rocket 4.0 15:09:13 10° NNW 15:14:27 83° WSW 15:19:39 10° SSE
Resurs 01 Rocket 2.6 15:13:41 21° E 15:15:22 26° ENE 15:19:04 10° N
Cosmos 1844 3.7 15:15:37 10° SSW 15:21:21 66° ESE 15:26:43 12° NE
Cosmos 1441 Rocket 2.7 15:20:32 10° N 15:23:54 70° ENE 15:27:13 10° SSE
NOAA 6 4.1 15:21:23 10° SE 15:26:24 54° ENE 15:31:25 10° N
SJ-6B 4.3 15:28:36 18° NNE 15:28:36 18° NNE 15:29:58 10° N
CARTOSAT-1 4.0 15:26:38 22° ESE 15:28:41 37° ENE 15:32:36 10° N
Cosmos 2016 Rocket 3.9 15:28:34 10° S 15:34:48 74° E 15:41:08 10° NNE
Cosmos 44 4.1 15:32:23 10° WSW 15:36:51 44° NNW 15:40:09 18° NE
Cosmos 2219 4.3 15:32:01 10° WSW 15:37:21 42° NW 15:42:44 10° NNE
Cosmos 1340 Rocket 3.0 15:34:48 10° SSW 15:38:39 69° WNW 15:42:32 10° N
PSLV R/B 3.3 15:37:11 10° SSE 15:41:17 86° ENE 15:45:22 10° NNW
RESURS DK-1 3.4 15:41:03 10° NNW 15:44:22 27° NNE 15:44:22 27° NNE
SJ-7 4.2 15:41:22 10° SSE 15:45:04 80° WSW 15:48:48 10° NNW
CZ-4 R/B 3.6 15:48:01 11° NNE 15:48:01 11° NNE 15:48:17 10° NNE
Cosmos 614 Rocket 4.2 15:40:54 10° SW 15:46:06 73° WNW 15:51:19 10° NNE
Resurs 1-3 3.4 15:43:09 10° SSE 15:47:27 88° ENE 15:51:48 10° NNW
Helios 1A Rocket 2.4 15:50:01 58° ESE 15:50:01 58° ESE 15:53:10 10° S
Meteor 2-12 Rocket 4.4 15:44:32 10° N 15:50:39 64° ENE 15:56:42 10° SSE
Cosmos 2061 Rocket 3.9 15:46:23 10° S 15:52:40 68° E 15:58:54 10° NNE
MOS 1 Rocket 4.1 15:51:17 10° S 15:55:23 46° W 15:59:35 10° NNW
Cosmos 2344 3.9 15:52:45 10° WNW 15:59:57 55° NNE 16:04:01 31° E
Cosmos 2263 Rocket 3.8 15:55:09 10° W 15:59:57 29° NNW 16:04:38 11° NNE
Terra 4.0 16:02:50 12° NNE 16:02:50 12° NNE 16:03:28 10° NNE
YAOGAN 1 2.8 15:56:34 10° S 16:00:49 67° WSW 16:05:05 10° NNW
Cosmos 921 Rocket 2.9 15:57:47 10° SSW 16:02:03 67° ESE 16:03:02 49° NE
SL-19 R/B 4.4 15:57:50 10° S 16:03:06 66° WSW 16:08:18 10° NNW
SPOT 1/Viking Rocket 4.2 15:58:03 10° S 16:03:07 56° W 16:08:15 10° NNW
Cosmos 1844 Rocket 3.0 16:01:04 10° SW 16:06:36 65° NW 16:10:52 18° NNE
Nadezhda 4 Rocket 4.2 16:00:47 10° N 16:06:54 47° ENE 16:08:34 39° ESE
Cosmos 1763 Rocket 3.5 16:02:45 10° NNW 16:07:59 59° ENE 16:09:02 49° ESE
Cosmos 1607 4.2 16:02:12 10° WSW 16:08:18 64° NW 16:11:54 26° NE
Cosmos 1833 Rocket 2.8 16:05:51 10° NW 16:11:31 74° WSW 16:15:40 19° SSE
Cosmos 2297 Rocket 4.3 16:07:53 10° NW 16:11:40 18° NNW 16:14:44 12° NNE
ATLAS CENTAUR R/B 3.1 16:11:16 10° SSW 16:12:10 16° S 16:12:10 16° S
BREEZE-M DEB (TANK) 3.9 16:12:52 10° SSW 16:14:51 27° SSE 16:14:51 27° SSE
ARIANE 6 FM1 Upper Stage 2.5 16:12:21 10° SW 16:16:08 77° SSW 16:16:08 77° SSW
Cosmos 1140 Rocket 4.5 16:14:02 10° S 16:16:58 31° SSE 16:16:58 31° SSE
Cosmos 1891 Rocket 4.5 16:15:23 10° S 16:21:41 62° E 16:28:05 10° NNE
Cosmos 1782 Rocket 3.7 16:17:15 10° SSW 16:21:42 76° WNW 16:26:10 10° N
SL-16 R/B 4.4 16:16:39 10° N 16:21:46 27° NW 16:26:52 10° WSW
SKYMED 2 4.1 16:17:59 10° N 16:22:16 59° WNW 16:26:33 10° SSW
Cosmos 1867 3.5 16:19:51 10° SW 16:25:20 87° NW 16:26:47 51° NE
Timation 1 Rocket 4.2 16:19:38 10° NW 16:25:37 70° NE 16:26:46 56° ESE
CSL-04 Rocket 3.8 16:27:12 51° NE 16:27:12 51° NE 16:32:05 10° N
NOSS 3-3 (A) 4.2 16:21:25 10° WSW 16:27:01 64° NNW 16:29:56 34° NE
COSMO-SKYMED 1 2.7 16:25:43 31° N 16:27:36 68° WNW 16:31:42 10° SSW
ATLAS 5 CENTAUR R/B 1.6 16:27:18 10° NW 16:31:22 72° SW 16:31:34 70° SSW
Cosmos 540 Rocket 3.3 16:28:03 10° NNW 16:33:14 74° ENE 16:33:15 74° ENE
SPOT 5 3.7 16:35:12 41° NNE 16:35:12 41° NNE 16:39:05 10° N
Cosmos 1428 Rocket 4.4 16:29:41 10° N 16:35:50 60° ENE 16:36:04 59° E
Cosmos 1975 Rocket 4.1 16:34:25 10° NNW 16:38:31 43° W 16:42:36 10° SSW
Cosmos 468 Rocket 4.3 16:37:34 10° NNW 16:42:00 55° NNE 16:42:00 55° NNE
ATLAS 2AS CENTAUR R/B 3.2 16:36:29 10° WNW 16:43:02 45° N 16:44:21 40° NE
SL-4 R/B 3.9 16:42:14 10° WSW 16:44:10 20° SW 16:44:10 20° SW
NOSS 3-3 (C) 4.3 16:43:16 10° WSW 16:48:53 59° NNW 16:50:56 41° NNE
USA 281 3.7 16:45:03 17° S 16:50:13 59° WSW 16:56:45 10° NW
CZ-4B R/B 4.1 16:52:46 35° NNE 16:52:46 35° NNE 16:56:08 10° N
Resurs 01 Rocket 2.2 16:51:06 51° WSW 16:51:30 54° W 16:55:52 10° NNW
Cosmos 2082 Rocket 2.3 16:50:08 10° NNW 16:55:04 62° N 16:55:04 62° N
CZ-4B DEB 4.4 16:57:33 58° N 16:57:33 58° N 17:01:57 10° NNW
ADEOS 4.5 16:58:32 38° N 16:58:32 38° N 17:01:48 10° NNW
CZ-4C R/B 2.2 16:54:01 10° WSW 16:58:43 68° NNW 16:58:43 68° NNW
Cosmos 2227 Rocket 4.3 16:55:09 10° NW 16:58:53 18° N 17:00:52 15° NNE
COSMOS 2406 3.9 16:53:26 10° NNW 16:57:48 43° N 16:57:48 43° N
CZ-4 R/B 4.3 17:23:07 10° NNW 17:23:07 10° NNW 17:23:08 10° NNW
Terra 4.3 17:41:28 14° N 17:41:28 14° N 17:42:11 10° NNW
BREEZE M DEB (TANK) 4.5 17:30:26 10° W 17:37:25 34° SW 17:37:25 34° SW
Cosmos 2263 Rocket 4.3 17:42:14 10° NW 17:45:46 17° N 17:46:17 16° N
Cosmos 2297 Rocket 4.4 17:53:58 10° NNW 17:56:31 17° N 17:56:31 17° N
Cosmos 2344 3.9 18:07:10 10° NW 18:14:01 70° W 18:14:01 70° W
ATLAS 2AS CENTAUR R/B 3.9 18:27:55 10° NW 18:31:46 36° NW 18:31:46 36° NW
Cosmos 2082 Rocket 4.4 18:34:42 10° NW 18:36:54 20° WNW 18:36:54 20° WNW
